Weather History for Council Bluffs, IA

Change the Weather History Date:

Monday, September 16, 2013

  Actual Average Record
Temperature  
Mean Temperature 60 °F -  
Max Temperature 66 °F 75 °F 91 °F (2006)
Min Temperature 53 °F 53 °F 44 °F (2011)
Degree Days  
Heating Degree Days 6    
Growing Degree Days 10 (Base 50)    
Moisture  
Dew Point 54 °F    
Average Humidity 84    
Maximum Humidity 100    
Minimum Humidity 64    
Precipitation  
Precipitation 0.06 in - - ()
Sea Level Pressure  
Sea Level Pressure 30.26 in    
Wind  
Wind Speed 9 mph (East)    
Max Wind Speed 14 mph    
Max Gust Speed 21 mph    
Visibility 10 miles    
Events Rain    
Averages and records for this station are not official NWS values.
T = Trace of Precipitation, MM = Missing Value Source: NWS Daily Summary

Daily Weather History Graph

Daily Weather History Graph

Search for Another Location

Airport:

Trip Planner

Search our weather history database for the weather conditions in past years. The results will help you decide how hot, cold, wet, or windy it might be!

Date:

Astronomy

Sep. 16, 2013 Rise Set
Actual Time 7:04 AM CDT 7:30 PM CDT
Civil Twilight 6:37 AM CDT 7:57 PM CDT
Nautical Twilight 6:04 AM CDT 8:30 PM CDT
Astronomical Twilight 5:31 AM CDT 9:03 PM CDT
Moon 5:40 PM CDT (9/16) 3:50 AM CDT (9/16)
Length of Visible Light 13h 20m
Length of Day
12h 25m
Waxing Gibbous, 90% of the Moon is Illuminated
Sep 16
Waxing Gibbous
Sep 19
Full
Sep 26
Last Quarter
Oct 4
New
Oct 11
First Quarter

Hourly Weather History & Observations

Time (CDT) Temp. Dew Point Humidity Pressure Visibility Wind Dir Wind Speed Gust Speed Precip Events Conditions
12:15 AM 62.6 °F 51.8 °F 68% 30.25 in 10.0 mi ENE 11.5 mph 17.3 mph N/A   Overcast
12:35 AM 60.8 °F 51.8 °F 72% 30.26 in 10.0 mi ENE 8.1 mph - N/A   Overcast
12:55 AM 60.8 °F 51.8 °F 72% 30.26 in 10.0 mi ENE 11.5 mph 17.3 mph N/A   Overcast
1:15 AM 60.8 °F 51.8 °F 72% 30.25 in 10.0 mi ENE 9.2 mph - N/A   Overcast
1:35 AM 59.0 °F 53.6 °F 82% 30.25 in 10.0 mi ENE 8.1 mph - N/A   Overcast
1:55 AM 59.0 °F 53.6 °F 82% 30.26 in 10.0 mi NE 6.9 mph - N/A   Overcast
2:15 AM 57.2 °F 51.8 °F 82% 30.25 in 10.0 mi NE 6.9 mph - N/A   Mostly Cloudy
2:35 AM 55.4 °F 51.8 °F 88% 30.25 in 10.0 mi NE 6.9 mph - N/A   Overcast
2:55 AM 55.4 °F 53.6 °F 94% 30.25 in 10.0 mi NE 5.8 mph - N/A   Overcast
3:15 AM 57.2 °F 53.6 °F 88% 30.26 in 10.0 mi NE 5.8 mph - N/A   Overcast
3:35 AM 57.2 °F 53.6 °F 88% 30.25 in 10.0 mi NE 8.1 mph - N/A   Overcast
3:55 AM 55.4 °F 53.6 °F 94% 30.25 in 10.0 mi NNE 5.8 mph - N/A   Mostly Cloudy
4:15 AM 55.4 °F 53.6 °F 94% 30.26 in 10.0 mi NE 6.9 mph - N/A   Partly Cloudy
4:35 AM 55.4 °F 53.6 °F 94% 30.26 in 10.0 mi NE 9.2 mph - N/A   Clear
4:55 AM 55.4 °F 53.6 °F 94% 30.26 in 10.0 mi NE 8.1 mph - N/A   Clear
5:15 AM 55.4 °F 53.6 °F 94% 30.26 in 10.0 mi NE 9.2 mph - N/A   Clear
5:35 AM 55.4 °F 53.6 °F 94% 30.27 in 10.0 mi NNE 9.2 mph - N/A   Clear
5:55 AM 53.6 °F 53.6 °F 100% 30.28 in 10.0 mi NE 6.9 mph - N/A   Clear
6:15 AM 53.6 °F 53.6 °F 100% 30.28 in 10.0 mi NE 8.1 mph - N/A   Clear
6:35 AM 53.6 °F 53.6 °F 100% 30.28 in 10.0 mi NE 9.2 mph - N/A   Clear
6:55 AM 53.6 °F 53.6 °F 100% 30.29 in 10.0 mi NE 8.1 mph - N/A   Clear
7:15 AM 53.6 °F 53.6 °F 100% 30.29 in 10.0 mi NNE 8.1 mph - N/A   Clear
7:35 AM 53.6 °F 53.6 °F 100% 30.30 in 10.0 mi NNE 6.9 mph - N/A   Clear
7:55 AM 53.6 °F 53.6 °F 100% 30.30 in 10.0 mi NNE 8.1 mph - N/A   Clear
8:15 AM 53.6 °F 53.6 °F 100% 30.31 in 10.0 mi NE 9.2 mph - N/A   Clear
8:35 AM 55.4 °F 55.4 °F 100% 30.31 in 10.0 mi NE 9.2 mph - N/A   Clear
8:55 AM 57.2 °F 55.4 °F 94% 30.31 in 10.0 mi NE 10.4 mph - N/A   Clear
9:15 AM 55.4 °F 55.4 °F 100% 30.32 in 10.0 mi ENE 10.4 mph - N/A   Scattered Clouds
9:35 AM 57.2 °F 55.4 °F 94% 30.32 in 10.0 mi East 11.5 mph - N/A   Mostly Cloudy
9:55 AM 59.0 °F 55.4 °F 88% 30.32 in 10.0 mi ENE 10.4 mph - N/A   Scattered Clouds
10:15 AM 59.0 °F 55.4 °F 88% 30.32 in 10.0 mi East 12.7 mph - N/A   Overcast
10:35 AM 60.8 °F 55.4 °F 82% 30.32 in 10.0 mi East 13.8 mph - N/A   Mostly Cloudy
10:55 AM 60.8 °F 55.4 °F 82% 30.32 in 10.0 mi ESE 9.2 mph 17.3 mph N/A   Mostly Cloudy
11:15 AM 60.8 °F 53.6 °F 77% 30.33 in 10.0 mi ESE 10.4 mph 16.1 mph N/A   Overcast
11:35 AM 60.8 °F 55.4 °F 82% 30.33 in 10.0 mi East 9.2 mph - N/A   Overcast
11:55 AM 62.6 °F 55.4 °F 77% 30.33 in 10.0 mi East 12.7 mph - N/A   Overcast
12:15 PM 62.6 °F 55.4 °F 77% 30.33 in 10.0 mi ESE 10.4 mph 17.3 mph N/A   Overcast
12:35 PM 62.6 °F 55.4 °F 77% 30.32 in 10.0 mi ESE 10.4 mph - N/A   Overcast
12:55 PM 64.4 °F 53.6 °F 68% 30.32 in 10.0 mi ESE 13.8 mph - N/A   Overcast
1:15 PM 64.4 °F 55.4 °F 73% 30.30 in 10.0 mi ESE 9.2 mph 15.0 mph N/A   Overcast
1:35 PM 66.2 °F 55.4 °F 68% 30.29 in 10.0 mi East 12.7 mph - N/A   Overcast
1:55 PM 66.2 °F 53.6 °F 64% 30.28 in 10.0 mi East 12.7 mph 19.6 mph N/A   Overcast
2:15 PM 64.4 °F 53.6 °F 68% 30.28 in 10.0 mi East 13.8 mph - N/A   Mostly Cloudy
2:35 PM 64.4 °F 53.6 °F 68% 30.27 in 10.0 mi ESE 12.7 mph - N/A   Partly Cloudy
2:55 PM 66.2 °F 55.4 °F 68% 30.27 in 10.0 mi ESE 12.7 mph - N/A   Scattered Clouds
3:15 PM 64.4 °F 53.6 °F 68% 30.26 in 10.0 mi ESE 11.5 mph 19.6 mph N/A   Scattered Clouds
3:35 PM 64.4 °F 53.6 °F 68% 30.25 in 10.0 mi ESE 11.5 mph 19.6 mph N/A   Partly Cloudy
3:55 PM 64.4 °F 53.6 °F 68% 30.24 in 10.0 mi ESE 11.5 mph - N/A   Partly Cloudy
4:15 PM 64.4 °F 53.6 °F 68% 30.24 in 10.0 mi East 10.4 mph 17.3 mph N/A   Partly Cloudy
4:35 PM 64.4 °F 53.6 °F 68% 30.23 in 10.0 mi East 10.4 mph - N/A   Scattered Clouds
4:55 PM 64.4 °F 55.4 °F 73% 30.22 in 10.0 mi ESE 10.4 mph 18.4 mph N/A   Mostly Cloudy
5:15 PM 64.4 °F 53.6 °F 68% 30.22 in 10.0 mi ESE 12.7 mph - N/A   Mostly Cloudy
5:35 PM 62.6 °F 53.6 °F 72% 30.21 in 10.0 mi ESE 12.7 mph - N/A   Partly Cloudy
5:55 PM 62.6 °F 53.6 °F 72% 30.21 in 10.0 mi ESE 11.5 mph - N/A   Clear
6:15 PM 62.6 °F 53.6 °F 72% 30.21 in 10.0 mi ESE 12.7 mph 20.7 mph N/A   Partly Cloudy
6:35 PM 60.8 °F 53.6 °F 77% 30.21 in 10.0 mi SE 10.4 mph 17.3 mph N/A   Mostly Cloudy
6:55 PM 60.8 °F 53.6 °F 77% 30.21 in 10.0 mi SE 9.2 mph 15.0 mph N/A   Overcast
7:15 PM 59.0 °F 55.4 °F 88% 30.21 in 6.0 mi SE 9.2 mph - N/A   Light Drizzle
7:35 PM 59.0 °F 55.4 °F 88% 30.21 in 10.0 mi ESE 6.9 mph - N/A   Mostly Cloudy
7:55 PM 59.0 °F 55.4 °F 88% 30.21 in 10.0 mi ESE 4.6 mph - 0.01 in   Overcast
8:15 PM 59.0 °F 55.4 °F 88% 30.21 in 10.0 mi ESE 3.5 mph - N/A   Overcast
8:35 PM 59.0 °F 55.4 °F 88% 30.21 in 10.0 mi ESE 4.6 mph - N/A   Overcast
8:55 PM 59.0 °F 55.4 °F 88% 30.22 in 10.0 mi ESE 5.8 mph - N/A   Overcast
9:15 PM 59.0 °F 55.4 °F 88% 30.22 in 10.0 mi ESE 4.6 mph - N/A   Overcast
9:35 PM 59.0 °F 55.4 °F 88% 30.22 in 10.0 mi ESE 5.8 mph - N/A   Overcast
9:55 PM 59.0 °F 55.4 °F 88% 30.22 in 10.0 mi SE 5.8 mph - N/A   Overcast
10:15 PM 59.0 °F 55.4 °F 88% 30.22 in 10.0 mi ESE 5.8 mph - N/A   Overcast
10:35 PM 59.0 °F 55.4 °F 88% 30.22 in 10.0 mi ESE 5.8 mph - N/A   Overcast
10:55 PM 59.0 °F 55.4 °F 88% 30.22 in 10.0 mi ESE 6.9 mph - N/A   Overcast
11:15 PM 59.0 °F 55.4 °F 88% 30.22 in 6.0 mi ESE 8.1 mph - N/A Rain Light Rain
11:35 PM 57.2 °F 57.2 °F 100% 30.21 in 10.0 mi ESE 8.1 mph - N/A Rain Light Rain
11:55 PM 57.2 °F 57.2 °F 100% 30.21 in 10.0 mi ESE 9.2 mph - 0.05 in   Light Drizzle